Simultaneous Nadir Overpasses (SNOs) Predictions

Prediction of SNOs between AQUA and GOES-15 Satellite Orbit:

Table of predicted SNOs for the next 14.0 days since TLE Epoch: 2/5/2016
Index Date Time (AQUA) AQUA Lat,Lon GOES-15 Lat,Lon Distance(km) Time Diff (sec)
1 02/06/2016 10:25:53 -0.65,-132.65 -0.06,-135.33 304.20 80
2 02/06/2016 22:47:16 -0.51,-137.83 0.06,-135.29 289.58 80
3 02/08/2016 22:35:04 0.14,-134.87 0.06,-135.30 48.65 80
4 02/10/2016 22:22:52 0.80,-131.92 0.06,-135.31 386.29 80
5 02/11/2016 10:44:06 0.32,-137.07 -0.05,-135.35 195.65 80
6 02/13/2016 10:31:54 -0.35,-134.11 -0.05,-135.35 141.37 80
7 02/13/2016 22:53:17 -0.80,-139.29 0.05,-135.31 452.79 80
8 02/15/2016 10:19:42 -0.96,-131.14 -0.05,-135.34 477.77 80
9 02/15/2016 22:41:04 -0.18,-136.32 0.05,-135.30 116.50 80
10 02/17/2016 22:28:51 0.45,-133.36 0.04,-135.29 219.42 80
11 02/18/2016 10:50:06 0.66,-138.51 -0.04,-135.32 363.04 80




NCC Satellite Simultaneous Nadir Overpasses (SNOs) Prediction Service
